Location: Huntsville
(41.2590°N, 111.7678°W)
Time: 08:01:43
(UTC+00:00)

Envisat - Pass Details

Date: 10 December 2021
Orbit: 764 x 766 km, 98.2° (Epoch: 18 January)

Event Time Altitude Azimuth Distance (km) Brightness Sun altitude
Rises 13:29:50 0° 0° (N) 3,241 6.1 -13.2°
Reaches altitude 10° 13:32:28 10° 348° (NNW) 2,310 5.2 -12.7°
Maximum altitude 13:36:36 26° 294° (WNW) 1,488 3.9 -12.0°
Drops below altitude 10° 13:40:43 10° 239° (WSW) 2,297 5.1 -11.2°
Sets 13:43:20 0° 227° (SW) 3,218 6.0 -10.8°
